Regional Weather Roundup
Issued by NWS

Home | Current Version | Previous Version | Graphics & Text | Print | Product List | Glossary On
Versions: 1 2 3 4 5 6 7 8 9 10 11 12 13 14 15 16 17 18 19 20 21 22 23 24 25 26 27 28 29 30 31 32 33 34 35 36 37 38 39 40 41 42 43 44 45 46 47 48 49 50
027
ASUS43 KIND 060359
RWRIN

WEATHER ROUNDUP FOR INDIANA
NATIONAL WEATHER SERVICE INDIANAPOLIS IN
1100 PM EST MON DEC 05 2016

NOTE: "FAIR" INDICATES FEW OR NO CLOUDS BELOW 12,000 FEET WITH NO
SIGNIFICANT WEATHER AND/OR OBSTRUCTIONS TO VISIBILITY.

* - STATION DOES NOT REPORT WEATHER SUCH AS PRECIPITATION OR FOG.

+ - STATION NOT QUALITY CONTROLLED BY THE NATIONAL WEATHER SERVICE.
    USE DATA WITH CAUTION...ESPECIALLY DEWPOINT AND RELATIVE
    HUMIDITY OBSERVATIONS.

INZ001>003-010>013-019-020-060500-
NORTHWEST INDIANA

CITY           SKY/WX    TMP DP  RH WIND       PRES   REMARKS
GARY /AIRPORT/ CLOUDY    34  34 100 E9        29.97F FOG     WCI  26
MONTICELLO +   PTCLDY    32  29  87 E3        29.93F

$$

LMZ046-743>745-060500-
SOUTHERN LAKE MICHIGAN

STATION/POSITION TIME  TEMP    WIND        PRES    WAVE
                       AIR SEA DIR/SP/G            HT
                 (UTC) (F)     (DEG/KT/KT) (MB)    (FT)
BURNS HARBOR     0309   33     110/  7/ 14 1015.6

$$

INZ004-005-014>016-021>024-060500-
NORTH CENTRAL INDIANA

CITY           SKY/WX    TMP DP  RH WIND       PRES   REMARKS
GOSHEN         CLEAR     29  25  85 E6        30.00S FOG     WCI  23
SOUTH BEND     CLOUDY    31  30  96 E8        30.00S WCI  23

$$

INZ006>009-017-018-025>027-060500-
NORTHEAST INDIANA

CITY           SKY/WX    TMP DP  RH WIND       PRES   REMARKS
ANGOLA *+      CLEAR     28  25  86 SE5       29.99F WCI  23
FORT WAYNE     PTCLDY    29  27  92 E8        29.99F WCI  21
KENDALLVILLE + CLEAR     30  28  94 E3        29.99F FOG

$$

INZ028-029-035-036-043>045-051>053-060500-
WEST CENTRAL INDIANA

CITY           SKY/WX    TMP DP  RH WIND       PRES   REMARKS
CRAWFORDSVL +  CLEAR     32  32 100 E9        29.91S WCI  24
GREENCASTLE +  CLEAR     32  32 100 E8        29.90F WCI  25
LAFAYETTE      PTCLDY    32  31  96 E8        29.92F WCI  25
TERRE HAUTE    CLEAR     33  29  85 E6        29.89F WCI  28

$$

INZ030>032-037>040-046>048-054>057-064-065-060500-
CENTRAL INDIANA

CITY           SKY/WX    TMP DP  RH WIND       PRES   REMARKS
GREENWOOD *+   CLEAR     35  32  90 E7        29.92F WCI  29
INDIANAPOLIS   MOCLDY    36  31  82 E13       29.91F
-EAGLE CREEK   CLEAR     35  30  82 E8        29.92F WCI  29
KOKOMO +       CLEAR     32  30  92 E9        29.95S WCI  24
SHELBYVILLE    CLEAR     35  31  85 E9        29.91F WCI  28

$$

INZ033-034-041-042-049-050-058-059-060500-
EAST CENTRAL INDIANA

CITY           SKY/WX    TMP DP  RH WIND       PRES   REMARKS
MUNCIE         CLEAR     32  29  88 MISG      29.95F

$$

INZ060-061-067>069-081>083-085>088-060500-
SOUTHWEST INDIANA

CITY           SKY/WX    TMP DP  RH WIND       PRES   REMARKS
EVANSVILLE     CLOUDY    42  35  76 E7        29.83F
HUNTINGBURG *+ PTCLDY    42  36  79 E9        29.84F

$$

INZ062-063-066-070>080-084-089>092-060500-
SOUTH CENTRAL AND SOUTHEAST INDIANA

CITY           SKY/WX    TMP DP  RH WIND       PRES   REMARKS
BLOOMINGTON    CLOUDY    39  32  76 E12       29.87F
MADISON *+     CLOUDY    41  34  75 E9        29.90F
SEYMOUR +      CLOUDY    39  36  87 NE5       29.90F

$$





USA.gov is the U.S. government's official web portal to all federal, state and local government web resources and services.